User: anonymous   Login
Location: ????????
(55.7667°N, 37.4833°E)
Time: 07:00:45
(UTC+00:00)
Language:

Cosmos 2061 Rocket - Orbit

View from above orbital plane
View from above orbital plane
View from above satellite
View from above satellite

Ground track
Ground track

The orbit data is extracted from the following two-line orbital elements,

1 20528U 90023B   25198.49984157 -.00000006  00000-0 -23525-4 0  9992
2 20528  82.9337  41.9785 0033186  99.7722 326.4073 13.73117066769868
Epoch (UTC): 17 July 2025 11:59:46
Eccentricity: 0.0033186
inclination: 82.9337°
perigee height: 964 km
apogee height: 1013 km
right ascension of ascending node: 41.9785°
argument of perigee: 99.7722°
revolutions per day: 13.73117066
mean anomaly at epoch: 326.4073°
orbit number at epoch: 76986

The dashed part of the orbit path shows where the satellite is in the earth's shadow,  

DLR